www.pogodaiklimat.ru

Погода и климат >> Архив погоды >> Китай >> Внутренняя Монголия >> Чифэн


ПОГОДА в Чифэне

  • Прогноз погоды в Чифэне
  • Монитор погоды в Чифэне

АРХИВ ПОГОДЫ в Чифэне

Время (UTC), дата Ветер
(напр.,м/с)
 
Видим.   Явления Облачность Т
(С)
Тd
(С)
f
(%)
Тe
(С)
Тes
(С)
Комфортность P
(гПа)
Po
(гПа)
Тmin
(С)
Tmax
(С)
R
(мм)
R24
(мм)
S
(см)
15 13.07 З 1 30 км н/о +18.6 +16.6 88 +21 +21 комфорт 1004.7 939.6
18 13.07 С 2 30 км ?/? +17.7 +15.1 85 +18 +18 1003.3 928.9 +27.5 0.8
21 13.07 В 1 30 км в посл. час дождь н/о +16.7 +14.0 84 +18 +18 1003.9 938.4
00 14.07 З 1 30 км ясно +21.7 +14.4 63 +25 +34 комфорт 1004.2 930.0 0.8
03 14.07 В 2 30 км 4/4 1000 м
[]
+25.5 +15.5 54 +29 +40 душно 1004.3 940.7
06 14.07 С 3 30 км 8/8 1000 м
[]
+26.9 +14.6 47 +29 +32 жарко 1003.2 928.8 +16.3
09 14.07 С 4 30 км ясно +28.0 +15.0 45 +31 +33 душно 1002.4 939.4
12 14.07 В 2 30 км 4/4 1000 м
[]
+22.9 +18.0 74 +28 +28 душно 1004.7 930.2
15 14.07 С 1 30 км н/о +21.0 +17.2 79 +26 +26 душно 1005.7 941.0
18 14.07 В 1 23 км н/о +18.6 +16.9 90 +21 +21 комфорт 1005.9 931.4 +28.6
21 14.07 З 1 17 км н/о +17.6 +16.3 92 +19 +19 1006.6 941.1
00 15.07 З 1 27 км ясно +22.6 +16.6 69 +27 +36 душно 1007.4 932.8
03 15.07 В 2 30 км ясно +27.1 +14.2 45 +29 +48 жарко 1007.0 943.5
06 15.07 СВ 3 30 км 3/3 1000 м
[]
+29.9 +15.6 42 +33 +42 душно 1006.1 932.0 +17.2
09 15.07 В 2 30 км ясно +29.0 +14.8 42 +31 +36 жарко 1005.7 942.7
12 15.07 штиль 0 13 км ясно +25.3 +13.5 48 +27 +27 жарко 1006.5 932.3
15 15.07 ЮЗ 1 30 км н/о +21.8 +14.4 63 +25 +25 комфорт 1007.6 943.0
18 15.07 Ю 1 30 км н/о +19.1 +16.0 82 +22 +22 комфорт 1007.1 933.0 +30.2
21 15.07 штиль 0 25 км н/о +18.8 +15.9 83 +20 +20 1007.6 942.3
00 16.07 Ю 2 14 км 6/6 1500 м
[]
+24.8 +19.0 70 +30 +33 душно 1007.5 933.5
03 16.07 Ю 1 19 км 6/6 1000 м
[]
+28.8 +19.2 56 +34 +43 очень
душно
1006.9 943.8
06 16.07 Ю 3 30 км 6/6 1000 м
[]
+31.8 +18.8 46 +37 +42 очень
душно
1005.3 931.5 +18.6
09 16.07 З 3 28 км 9/9 1000 м
[]
+29.3 +17.8 50 +34 +34 очень
душно
1005.1 942.2
12 16.07 ЮЗ 2 23 км 8/8 1000 м
[]
+27.0 +18.3 59 +32 +32 очень
душно
1005.9 932.2
15 16.07 СЗ 3 28 км н/о +25.2 +17.1 61 +29 +29 душно 1006.9 943.0
18 16.07 СЗ 3 30 км н/о +23.3 +15.4 61 +28 +28 душно 1006.4 933.0 +31.8
21 16.07 Ю 1 19 км н/о +21.7 +16.2 71 +25 +25 комфорт 1007.5 942.9
00 17.07 З 3 30 км 9/9 1000 м
[]
+23.5 +16.5 65 +27 +28 душно 1007.9 933.9
03 17.07 З 1 30 км 9/9 1000 м
[]
+25.0 +15.9 57 +28 +30 жарко 1008.2 944.2
06 17.07 Ю 3 25 км 9/9 1000 м
[]
+25.5 +16.4 57 +29 +30 душно 1007.3 933.1 +21.4
09 17.07 Ю 3 30 км 6/6 1000 м
[]
+26.5 +17.0 56 +30 +32 душно 1006.1 942.6
12 17.07 Ю 1 30 км 5/5 1000 м
[]
+24.0 +17.7 68 +28 +28 душно 1007.2 932.9
15 17.07 ЮЗ 2 18 км н/о +20.8 +17.6 82 +25 +25 комфорт 1008.3 943.4
18 17.07 ЮЗ 1 10 км н/о +19.3 +17.3 88 +22 +22 комфорт 1007.8 933.1 +27.9
21 17.07 З 1 н/о дымка н/о +19.0 +17.0 88 +22 +22 комфорт 1008.0 942.8
00 18.07 ЮЗ 1 25 км 4/4 1000 м
[]
+24.5 +17.7 66 +29 +34 душно 1007.4 933.2
03 18.07 Ю 2 30 км ясно +29.8 +16.6 45 +33 +51 опасность
солнечного
удара
1006.7 943.8
06 18.07 СВ 2 30 км ясно +32.3 +14.4 34 +34 +50 душно 1005.3 931.6 +18.7
09 18.07 СВ 2 30 км ясно +31.9 +15.4 37 +34 +38 душно 1004.6 942.2
12 18.07 Ю 1 30 км 4/4 1000 м
[]
+27.9 +16.8 51 +32 +32 душно 1004.8 931.2
15 18.07 Ю 1 30 км н/о +24.0 +17.5 67 +28 +28 душно 1005.2 941.2
18 18.07 ЮВ 1 23 км н/о +21.9 +18.1 79 +27 +27 душно 1005.2 931.8 +33.0
21 18.07 штиль 0 15 км н/о +21.3 +17.9 81 +25 +25 комфорт 1005.6 941.0
00 19.07 Ю 2 14 км 6/6 1000 м
[]
+25.1 +19.2 70 +30 +33 душно 1005.1 931.6
03 19.07 ЮВ 3 19 км 6/6 1000 м
[]
+30.1 +19.2 52 +36 +42 очень
душно
1004.0 941.3
06 19.07 Ю 4 22 км 6/6 1000 м
[]
+31.6 +19.3 48 +37 +41 очень
душно
1002.7 929.4 +20.9
09 19.07 Ю 4 17 км 6/6 1000 м
[]
+30.2 +19.3 52 +36 +37 очень
душно
1002.0 939.5
12 19.07 ЮЗ 3 17 км 8/8 1000 м
[]
+27.6 +17.8 55 +32 +32 очень
душно
1002.7 929.3
15 19.07 Ю 1 10 км н/о +24.7 +19.1 71 +30 +30 очень
душно
1002.2 938.5
18 19.07 Ю 2 7000 м н/о +24.1 +19.0 73 +29 +29 душно 1001.3 928.4 +32.3
21 19.07 Ю 2 6000 м слаб. дождь н/о +23.5 +19.2 77 +28 +28 душно 1001.8 937.9
00 20.07 Ю 3 8000 м 8/8 1000 м
[]
+25.5 +20.3 73 +31 +33 очень
душно
1002.0 928.7
03 20.07 Ю 3 22 км 6/6 1000 м
[]
+29.6 +20.5 58 +36 +42 очень
душно
1000.9 938.3
06 20.07 Ю 4 30 км 8/8 1000 м
[]
+31.4 +19.1 48 +37 +39 очень
душно
999.0 926.2 +23.4
09 20.07 ЮЗ 4 28 км 9/9 1000 м
[]
+29.3 +19.6 56 +35 +36 очень
душно
998.7 936.2
12 20.07 Ю 2 25 км 8/8 1000 м
[]
+26.7 +19.3 64 +32 +32 очень
душно
1000.1 926.9

 

Местоположение метеостанции Чифэн (Внутренняя Монголия, Китай): широта 42.27 долгота 118.96 высота над уровнем моря 572 м.

В архиве по умолчанию представлена погода в Чифэне за последнюю неделю. Архивные данные за месяц целиком и за предыдущие месяцы, начиная с января 2011 года, Вы можете получить, выбрав интересующий диапазон дат из раскрывающегося списка и нажав кнопку "Ввод!".


*Определитесь, кто Вы:
робот инопланетянин человек

Внимание! Время в таблицах - всемирное. Для получения местного времени необходимо прибавить поправку, которая равна 8 ч.

Смотрите также архив погоды в соседних городах и на ближайших метеорологических станциях:

Погода в Вэйчане (Хэбэй, Китай) (107 км)
Погода в Дабейва (Внутренняя Монголия, Китай) (143 км)
Погода в Чаояне (Ляонин, Китай) (147 км)
Погода в Линьси (Внутренняя Монголия, Китай) (165 км)
Погода в Чэндэ (Хэбэй, Китай) (166 км)
Погода в Байрин-Цзоци (Внутренняя Монголия, Китай) (194 км)
Погода в Долуне (Внутренняя Монголия, Китай) (206 км)
Погода в Цинлуне (Хэбэй, Китай) (208 км)
Погода в Цзиньчжоу (Ляонин, Китай) (219 км)
Погода в Фэннине (Хэбэй, Китай) (226 км)

Пояснения к столбцам:

Ветер - указаны скорость ветра в м/с - средняя за 10 мин, порывы в срок и между сроками (в фигурных скобках) и направление, откуда дует ветер: С - северный, СВ - северо-восточный, В - восточный, ЮВ - юго-восточный, Ю - южный, ЮЗ - юго-западный, З - западный, СЗ - северо-западный.
Видимость - горизонтальная дальность видимости в метрах или километрах. При видимости от 1 до 10 км при отсутствии осадков обычно наблюдается дымка, при ухудшении видимости до 1 км и менее - туман. В сухую погоду видимость может ухудшаться дымом, пылью или мглою.
Явления - указаны атмосферные явления, наблюдавшиеся в срок или в последний час перед сроком; фигурными скобками обозначены явления, наблюдавшиеся между сроками (за 1-3 часа до срока); квадратными скобками обозначены град или гололедные отложения с указанием их диаметра в мм.
Облачность - указаны через наклонную черту общая и нижняя облачность в баллах и высота нижней границы облаков в метрах; квадратными скобками обозначены формы облаков: Ci - перистые, Cs - перисто-слоистые, Cc - перисто-кучевые, Ac - высококучевые, As - высокослоистые, Sc - слоисто-кучевые, Ns - слоисто-дождевые, Cu - кучевые, Cb - кучево-дождевые. Подробнее классификацию облаков см. в Атласе облаков (PDF).
T - Температура воздуха - температура, измеренная на высоте 2 м над землей.
Td - Температура точки росы - температура, при понижении до которой содержащийся в воздухе водяной пар достигнет насыщения.
f - Относительная влажность воздуха - влажноcть воздуха, измеренная на высоте 2 м над землей.
Te - Эффективная температура - температура, которую ощущает одетый по сезону человек в тени. Характеристика душности погоды. При расчете учитывается влияние влажности воздуха и скорости ветра на теплоощущения человека.
Tes - Эффективная температура на солнце - температура, которую ощущает человек, с поправкой на солнечный нагрев. Характеристика знойности погоды. Зависит от высоты солнца над горизонтом, облачности и скорости ветра. Ночью, в пасмурную погоду, а также при ветре 12 м/с и более поправка равна нулю.
P - Атмосферное давление - приведенное к уровню моря атмосферное давление.
Po - Атмосферное давление - измеренное на уровне метеостанции атмосферное давление.
Tmin - Минимальная температура - минимум температуры воздуха на высоте 2 м над землей.
Tmax - Максимальная температура - максимум температуры воздуха на высоте 2 м над землей.
R - Количество осадков - Количество выпавших осадков за период времени, мм. При наведении курсора мыши на число - период времени, за который выпало указанное количество осадков.
R24 - Количество осадков - Количество выпавших осадков за 24 часа, мм.
S - Снежный покров - Высота снежного покрова, см. При наведении курсора мыши на число - состояние снежного покрова и степень покрытия местности в баллах.